Powrót do katalogu

STARLINK-31604

AktywnyŁącznośćVLEO
NORAD 59214·PAYLOAD·🇺🇸 United States

Wystrzelony Mar 11, 2024 z Vandenberg Space Force Base

Loading…

Następne Przeloty (najbliższe 24 godziny)

TLE

ŚwieżeSource: CelesTrak SupGP

Epoka: Sep 15, 2026, 01:55 UTC

1 59214C 24046P   26258.08034722  .00060949  00000+0  18004-2 0  2586
2 59214  53.1601 351.3264 0001160  86.0964  30.8612 15.34366442    13

Śledź STARLINK-31604 w czasie rzeczywistym z AllMySat

Download on the App Store